sat.trackr.live / text

‹ back to catalog

STARLINK-4338

NORAD 53055 · 2022-077N

PAYLOAD ACTIVE UNKNOWN

§ Identity

Operator
Country
US
Launch date
2022-07-11
Launch site
AFWTR
Launch vehicle
Mass (kg)
RCS (m²)

Purposes: comms

External: N2YO · Heavens-Above · Gunter

§ Orbital elements

Epoch: 2026-05-25T00:41:20.556096Z

Period
95.64 min
Inclination
97.4497°
Eccentricity
0.0000967
Mean motion
15.05652942 rev/d
Perigee alt
548.8 km
Apogee alt
550.2 km
Semi-major
6,927.6 km
B*
-8.9506e-5
RAAN
326.0424°
Arg perigee
106.1142°
Mean anomaly
254.0192°
Rev number
21,246

§ Raw data

STARLINK-43381 53055U 22077N   26145.02871014 -.00001350  00000+0 -89506-4 0  99992 53055  97.4497 326.0424 0000967 106.1142 254.0192 15.05652942212465

JSON: /api/v1/satellites/53055 · /tle

For live sub-satellite position, see the globe view (requires WebGL).

§ Visibility from observer

Set your observer location to see the next 7 days of passes ≥ 10°. The values pass through the URL so the page stays shareable.

No JS? Fill the form by hand. The geolocation button needs JavaScript.